DW7980 Weather Reports


Display with metric or nautical units.
time (UTC)temp
F
wind
direction
speed
MPH
gust
MPH
rain 1hr
in
rain 24hr
in
rain mn
in
humidity
%
barometer
mb
20260505010540 68 221 2.0 8.0 0.00 0.00 0.00 69 1011.4
20260505010049 68 196 2.0 7.0 0.00 0.00 0.00 69 1011.4
20260505005540 68 242 3.0 7.0 0.00 0.00 0.00 69 1011.5
20260505005039 69 227 2.0 7.0 0.00 0.00 0.00 69 1011.5
20260505004550 69 196 2.0 7.0 0.00 0.00 0.00 68 1011.5
20260505004040 69 171 2.0 6.0 0.00 0.00 0.00 68 1011.5
20260505003538 69 170 2.0 9.0 0.00 0.00 0.00 68 1011.5
20260505003051 69 148 1.0 10.0 0.00 0.00 0.00 67 1011.5
20260505002539 69 171 2.0 10.0 0.00 0.00 0.00 67 1011.6
20260505002039 69 188 2.0 7.0 0.00 0.00 0.00 67 1011.6
20260505001550 69 230 1.0 7.0 0.00 0.00 0.00 68 1011.5
20260505001038 69 152 2.0 9.0 0.00 0.00 0.00 68 1011.5
20260505000542 69 182 3.0 9.0 0.00 0.00 0.00 68 1011.6
20260505000051 69 175 2.0 9.0 0.00 0.00 0.00 68 1011.5
20260504235541 69 167 4.0 9.0 0.00 0.00 0.00 67 1011.5
20260504235044 69 161 1.0 5.0 0.00 0.00 0.00 68 1011.6
20260504234613 69 86 1.0 7.0 0.00 0.00 0.00 68 1011.6
20260504234038 69 243 2.0 7.0 0.00 0.00 0.00 67 1011.7
20260504233538 69 102 1.0 5.0 0.00 0.00 0.00 68 1011.7
20260504233051 69 127 2.0 6.0 0.00 0.00 0.00 67 1011.8
20260504232539 69 224 2.0 6.0 0.00 0.00 0.00 68 1011.9
20260504232038 69 169 0.0 7.0 0.00 0.00 0.00 68 1011.9
20260504231554 69 164 2.0 7.0 0.00 0.00 0.00 67 1012.0
20260504231038 69 167 2.0 8.0 0.00 0.00 0.00 67 1012.0
20260504230538 69 191 3.0 8.0 0.00 0.00 0.00 66 1012.0
20260504230046 69 196 0.0 5.0 0.00 0.00 0.00 68 1012.1
20260504225538 69 169 2.0 5.0 0.00 0.00 0.00 66 1012.2
20260504225040 69 43 2.0 9.0 0.00 0.00 0.00 67 1012.3
20260504224600 69 189 1.0 9.0 0.00 0.00 0.00 69 1012.2
20260504224038 69 188 2.0 9.0 0.00 0.00 0.00 66 1012.2
20260504223538 68 183 2.0 8.0 0.00 0.00 0.00 67 1012.1
20260504223049 68 187 2.0 8.0 0.00 0.00 0.00 67 1012.2
20260504222539 68 161 2.0 10.0 0.00 0.00 0.00 67 1012.3
20260504222037 68 223 3.0 10.0 0.00 0.00 0.00 67 1012.3
20260504221600 69 159 2.0 8.0 0.00 0.00 0.00 65 1012.3
20260504221039 69 220 2.0 6.0 0.00 0.00 0.00 66 1012.4
20260504220537 69 200 2.0 6.0 0.00 0.00 0.00 66 1012.4
20260504220055 68 89 1.0 5.0 0.00 0.00 0.00 69 1012.4
20260504215538 68 167 1.0 6.0 0.00 0.00 0.00 67 1012.5
20260504215039 67 211 2.0 6.0 0.00 0.00 0.00 68 1012.7
20260504214556 67 158 0.0 7.0 0.00 0.00 0.00 69 1012.8
20260504214040 67 178 2.0 7.0 0.00 0.00 0.00 70 1013.0
20260504213539 67 203 2.0 6.0 0.00 0.00 0.00 70 1012.9
20260504213102 66 173 2.0 6.0 0.00 0.00 0.00 69 1012.9
20260504212539 66 135 1.0 7.0 0.00 0.00 0.00 70 1012.9
20260504212041 66 173 2.0 7.0 0.00 0.00 0.00 70 1012.9
20260504211553 66 194 3.0 7.0 0.00 0.00 0.00 70 1013.0
20260504211039 66 184 2.0 7.0 0.00 0.00 0.00 73 1013.0
20260504210538 66 204 3.0 7.0 0.00 0.00 0.00 70 1013.0
20260504210104 65 229 2.0 8.0 0.00 0.00 0.00 71 1013.1
20260504205539 65 227 4.0 8.0 0.00 0.00 0.00 70 1013.2
20260504205041 65 0 2.0 8.0 0.00 0.00 0.00 71 1013.3
20260504204628 65 213 3.0 9.0 0.00 0.00 0.00 72 1013.4
20260504204040 64 190 2.0 9.0 0.00 0.00 0.00 72 1013.6
20260504203542 64 277 2.0 10.0 0.00 0.00 0.00 72 1013.6
20260504203051 64 44 3.0 10.0 0.00 0.00 0.00 74 1013.7
20260504202538 63 230 2.0 9.0 0.00 0.00 0.00 74 1013.7
20260504202040 63 169 2.0 9.0 0.00 0.00 0.00 74 1013.8
20260504201548 63 147 3.0 8.0 0.00 0.00 0.00 76 1013.8
20260504201039 63 165 1.0 8.0 0.00 0.00 0.00 73 1013.9
20260504200538 63 136 1.0 6.0 0.00 0.00 0.00 74 1013.8
20260504200055 63 136 1.0 8.0 0.00 0.00 0.00 75 1014.0
20260504195538 62 177 2.0 8.0 0.00 0.00 0.00 76 1013.9
20260504195041 62 179 2.0 6.0 0.00 0.00 0.00 76 1014.0
20260504194551 62 189 2.0 5.0 0.00 0.00 0.00 75 1014.1
20260504194038 61 295 1.0 6.0 0.00 0.00 0.00 78 1014.1
20260504193539 61 183 2.0 9.0 0.00 0.00 0.00 77 1014.1
20260504193049 61 166 3.0 9.0 0.00 0.00 0.00 76 1014.1
20260504192538 61 193 3.0 9.0 0.00 0.00 0.00 77 1014.1
20260504192038 61 155 2.0 7.0 0.00 0.00 0.00 76 1014.2
20260504191552 60 171 1.0 6.0 0.00 0.00 0.00 77 1014.2
20260504191040 60 194 1.0 8.0 0.00 0.00 0.00 78 1014.2
20260504190538 60 271 2.0 9.0 0.00 0.00 0.00 79 1014.2
20260504190059 59 215 2.0 9.0 0.00 0.00 0.00 78 1014.2
20260504185540 59 167 3.0 11.0 0.00 0.00 0.00 80 1014.2
20260504185039 59 192 3.0 11.0 0.00 0.00 0.00 79 1014.3
20260504184600 59 192 2.0 9.0 0.00 0.00 0.00 80 1014.4
20260504184039 59 190 2.0 6.0 0.00 0.00 0.00 79 1014.3
20260504183541 59 148 2.0 6.0 0.00 0.00 0.00 79 1014.2
20260504183057 59 202 2.0 6.0 0.00 0.00 0.00 80 1014.4
20260504182541 59 0 2.0 6.0 0.00 0.00 0.00 79 1014.4
20260504182040 58 207 1.0 7.0 0.00 0.00 0.00 80 1014.3
20260504181549 58 231 2.0 9.0 0.00 0.00 0.00 81 1014.3
20260504181041 58 261 2.0 10.0 0.00 0.00 0.00 81 1014.3
20260504180540 58 195 3.0 10.0 0.00 0.00 0.00 80 1014.4
20260504180054 58 208 2.0 5.0 0.00 0.00 0.00 80 1014.4
20260504175538 58 101 1.0 4.0 0.00 0.00 0.00 81 1014.2
20260504175042 57 119 1.0 8.0 0.00 0.00 0.00 81 1014.2
20260504174551 57 171 1.0 8.0 0.00 0.00 0.00 82 1014.2
20260504174041 57 222 2.0 9.0 0.00 0.00 0.00 82 1014.2
20260504173538 56 171 2.0 9.0 0.00 0.00 0.00 82 1014.2
20260504173048 56 176 4.0 9.0 0.00 0.00 0.00 82 1014.1
20260504172537 56 161 3.0 9.0 0.00 0.00 0.00 82 1014.2
20260504172039 56 204 3.0 9.0 0.00 0.00 0.00 82 1014.2
20260504171550 56 219 3.0 9.0 0.00 0.00 0.00 82 1014.2
20260504171039 56 178 2.0 8.0 0.00 0.00 0.00 81 1014.2
20260504170539 56 197 3.0 8.0 0.00 0.00 0.00 82 1014.2
20260504151040 54 217 2.0 11.0 0.00 0.00 0.00 84 1013.9
20260504150540 54 169 2.0 11.0 0.00 0.00 0.00 84 1013.8
20260504141038 53 224 1.0 8.0 0.00 0.00 0.00 85 1013.3
20260504140539 53 184 2.0 8.0 0.00 0.00 0.00 85 1013.1
20260504130541 53 174 1.0 6.0 0.00 0.00 0.00 84 1012.0
20260504110538 57 161 3.0 12.0 0.00 0.00 0.00 78 1010.5
20260504100538 60 182 2.0 7.0 0.00 0.00 0.00 74 1010.0
20260504081550 62 0 0.0 3.0 0.00 0.00 0.00 72 1009.2
20260504081038 62 0 0.0 2.0 0.00 0.00 0.00 71 1009.2
20260504080538 62 0 0.0 1.0 0.00 0.00 0.00 70 1009.1
20260504050538 70 0 0.0 1.0 0.00 0.00 0.00 56 1008.2
20260504045539 70 0 0.0 2.0 0.00 0.00 0.00 57 1008.2
20260504045039 70 0 0.0 2.0 0.00 0.00 0.00 57 1008.2
20260504044552 71 0 0.0 2.0 0.00 0.00 0.00 58 1008.2
20260504044039 71 55 0.0 2.0 0.00 0.00 0.00 59 1008.2
20260504043539 71 0 0.0 1.0 0.00 0.00 0.00 57 1008.2
20260504043054 71 0 0.0 1.0 0.00 0.00 0.00 57 1008.2
20260504042539 71 0 0.0 1.0 0.00 0.00 0.00 57 1008.0
20260504042039 72 0 0.0 1.0 0.00 0.00 0.00 56 1007.9
20260504041550 72 0 0.0 1.0 0.00 0.00 0.00 56 1008.0
20260504041038 73 0 0.0 1.0 0.00 0.00 0.00 54 1007.9
20260504040538 73 0 0.0 1.0 0.00 0.00 0.00 52 1008.0
20260504040049 74 0 0.0 1.0 0.00 0.00 0.00 51 1007.9
20260504035540 74 0 0.0 1.0 0.00 0.00 0.00 50 1007.8
20260504035042 74 0 0.0 0.0 0.00 0.00 0.00 51 1007.8
20260504034606 74 0 0.0 0.0 0.00 0.00 0.00 48 1007.7
20260504034038 75 0 0.0 1.0 0.00 0.00 0.00 48 1007.6
20260504033539 75 0 0.0 1.0 0.00 0.00 0.00 49 1007.5
20260504033050 75 0 0.0 1.0 0.00 0.00 0.00 49 1007.5
20260504032539 75 0 0.0 1.0 0.00 0.00 0.00 47 1007.5
20260504032039 76 0 0.0 0.0 0.00 0.00 0.00 48 1007.5
20260504031549 76 0 0.0 0.0 0.00 0.00 0.00 48 1007.4
20260504031038 76 0 0.0 0.0 0.00 0.00 0.00 46 1007.3
20260504030540 77 0 0.0 0.0 0.00 0.00 0.00 48 1007.4
20260504030051 77 0 0.0 0.0 0.00 0.00 0.00 46 1007.4
20260504025539 77 0 0.0 0.0 0.00 0.00 0.00 46 1007.5
20260504025040 77 0 0.0 0.0 0.00 0.00 0.00 45 1007.4
20260504024547 78 0 0.0 0.0 0.00 0.00 0.00 45 1007.4
20260504024039 78 0 0.0 1.0 0.00 0.00 0.00 44 1007.4
20260504023538 78 0 0.0 1.0 0.00 0.00 0.00 44 1007.3
20260504023048 78 0 0.0 1.0 0.00 0.00 0.00 44 1007.3
20260504022539 79 0 0.0 1.0 0.00 0.00 0.00 43 1007.4
20260504022039 79 0 0.0 1.0 0.00 0.00 0.00 43 1007.3
20260504021548 80 0 0.0 1.0 0.00 0.00 0.00 42 1007.3
20260504021039 80 0 0.0 1.0 0.00 0.00 0.00 43 1007.3
20260504020540 80 126 0.0 1.0 0.00 0.00 0.00 40 1007.2
20260504020051 80 0 0.0 1.0 0.00 0.00 0.00 40 1007.3
20260504015540 81 0 0.0 1.0 0.00 0.00 0.00 39 1007.3
20260504015039 81 0 0.0 1.0 0.00 0.00 0.00 38 1007.4
20260504014600 81 0 0.0 2.0 0.00 0.00 0.00 38 1007.3
20260504014038 81 0 0.0 2.0 0.00 0.00 0.00 38 1007.2
20260504013539 82 0 0.0 2.0 0.00 0.00 0.00 39 1007.2
20260504013053 82 153 0.0 2.0 0.00 0.00 0.00 38 1007.2
20260504012539 82 0 0.0 2.0 0.00 0.00 0.00 38 1007.4
20260504012039 82 0 0.0 2.0 0.00 0.00 0.00 36 1007.4
20260504011554 83 0 0.0 2.0 0.00 0.00 0.00 35 1007.4
20260504011040 83 0 0.0 2.0 0.00 0.00 0.00 35 1007.4